Погода в Тимошине

Россия / Костромская область     57°50′02″N   44°25′03″E
темп.,
°C
ветер,
м/с
пор.,
м/с
влажн.,
%
обл.,
%
осадки,
мм/ч
давл.,
гПа
погр.,
м
24 мая, вт
вт2400:000зсз2599100 0.6 1000433
03:00−2сз2599100 0.9 1001311
06:000сз359370 0.0 1001517
09:00+2ссз347696 0.3 10021105
12:00+4зсз236694 0.1 10041056
15:00+5сз3579100 0.8 1005903
18:00+4с3588100 0.7 1006662
21:00+2сз249673 0.9 100874
25 мая, ср
ср2500:000сз249899 0.0 100894
03:00+1зсз2697100 0.0 1009180
06:00+2сз369694 0.0 1010285
09:00+2зсз25100100 0.9 1010256
12:00+3сз2499100 0.6 1010387
15:00+5зсз359187 0.7 1011685
18:00+4зсз2799100 2.4 1010859
21:00+3сз2799100 3.4 1010663
26 мая, чт
чт2600:00+2зсз269980 0.1 1010369
03:00+1зсз2599100 0.1 1010216
06:00+3з2496100 0.0 1010224
09:00+5зюз2588100 0.1 1009698
12:00+8юз3478100 1.1 10071106
15:00+9юз3582100 2.2 1006987
18:00+8зюз25898 1.0 1006623
21:00+4ююв22965 1.3 100512
27 мая, пт
пт2700:00+3юв239816 0.0 100458
03:00+3в3899100 0.0 1002176
06:00+6в3799100 0.0 999238
09:00+8в3799100 0.6 998337
12:00+8всв2699100 2.1 997310
15:00+8с1199100 4.6 998100
18:00+7сз13100100 1.8 998128
21:00+6зюз2299100 2.0 100029
28 мая, сб
сб2800:00+6зюз379923 0.0 1000149
03:00+5ююз279994 0.0 1001143
06:00+8ююз389796 0.0 1001310
09:00+11ю4889100 0.2 1000645
12:00+8ююв3897100 3.2 999594
15:00+9юз4109789 5.8 997674
18:00+9зюз4109524 0.7 999740
21:00+7ююз311975 0.7 1001348